sat.trackr.live / text

‹ back to catalog

OMNI-L1

NORAD 52157 · 2022-033A

PAYLOAD ACTIVE UNKNOWN

§ Identity

Operator
Country
US
Launch date
2022-04-01
Launch site
AFETR
Launch vehicle
Mass (kg)
RCS (m²)

External: N2YO · Heavens-Above · Gunter

§ Orbital elements

Epoch: 2026-05-25T03:59:24.724032Z

Period
97.12 min
Inclination
97.8396°
Eccentricity
0.0005298
Mean motion
14.82645979 rev/d
Perigee alt
617.3 km
Apogee alt
624.7 km
Semi-major
6,999.1 km
B*
2.1629e-4
RAAN
224.7921°
Arg perigee
16.5838°
Mean anomaly
343.5548°
Rev number
22,404

§ Raw data

OMNI-L11 52157U 22033A   26145.16625838  .00001691  00000+0  21629-3 0  99962 52157  97.8396 224.7921 0005298  16.5838 343.5548 14.82645979224045

JSON: /api/v1/satellites/52157 · /tle

For live sub-satellite position, see the globe view (requires WebGL).

§ Visibility from observer

Set your observer location to see the next 7 days of passes ≥ 10°. The values pass through the URL so the page stays shareable.

No JS? Fill the form by hand. The geolocation button needs JavaScript.

§ Radio — SatNOGS DB

ModeDescriptionDownlinkUplink
FM UHF Unknown 401.050 MHz

1 transmitter · refreshed weekly from db.satnogs.org